Skip Page Navigation
NASA JPL Caltech
NASA Logo - Jet Propulsion Laboratory + View the NASA Portal
+ Center for Near-Earth Object Studies
JPL Home Earth Solar System Stars & Galaxies Technology
JPL Solar System Dynamics
BODIES ORBITS EPHEMERIDES TOOLS PHYSICAL DATA DISCOVERY FAQ SITE MAP
IMPORTANT: The SSD Announcement email list is now available. Major changes are coming in the near future, including possible hostname and/or URL changes. To be notified of such changes, subscribe to this email list.

Please visit this page for more details.


JPL Small-Body Database Browser
Search: [ help ]  
434805 (2006 RO75)
Classification: Main-belt Asteroid          SPK-ID: 2434805
Ephemeris | Orbit Diagram | Orbital Elements | Mission Design | Physical Parameters | Discovery Circumstances ]

[ show orbit diagram ]
Orbital Elements at Epoch 2458600.5 (2019-Apr-27.0) TDB
Reference: JPL 11 (heliocentric ecliptic J2000)
 Element Value Uncertainty (1-sigma)   Units 
e .07190462319823553 8.2037e-08  
a 2.186664505222087 1.4303e-08 au
q 2.029433217913137 1.7623e-07 au
i 5.483112247985843 1.1937e-05 deg
node 177.5006684090044 8.8988e-05 deg
peri 91.9173749659616 0.00012933 deg
M 49.21405671433008 9.1316e-05 deg
tp 2458439.042462468318
(2018-Nov-16.54246247)
0.00029979 TDB
period 1181.059180892127
3.23
1.1588e-05
3.173e-08
d
yr
n .304811143949679 2.9906e-09 deg/d
Q 2.343895792531038 1.5331e-08 au
  Orbit Determination Parameters
   # obs. used (total)      110  
   data-arc span      9529 days (26.09 yr)  
   first obs. used      1993-09-20  
   last obs. used      2019-10-23  
   planetary ephem.      DE431  
   SB-pert. ephem.      SB431-N16  
   condition code      0  
   norm. resid. RMS      .63898  
   source      ORB  
   producer      Otto Matic  
   solution date      2019-Nov-08 15:41:26  

Additional Information
 Earth MOID = 1.02206 au 
 Jupiter MOID = 2.701 au 
 T_jup = 3.667 
[ show covariance matrix ]

Ephemeris | Orbit Diagram | Orbital Elements | Mission Design | Physical Parameters | Discovery Circumstances ]

Physical Parameter Table
Parameter Symbol Value Units Sigma Reference Notes
absolute magnitude H 18.2   n/a MPO440803  

434805 (2006 RO75)          Discovered 2006-Sep-15 by Spacewatch at Kitt Peak
Reference: Last Updated: 2015-06-04

Alternate Designations
 2006 RO75 = 2005 ES217 = 2005 GT14 
Ephemeris | Orbit Diagram | Orbital Elements | Mission Design | Physical Parameters | Discovery Circumstances ]
ABOUT SSD CREDITS/AWARDS PRIVACY/COPYRIGHT GLOSSARY LINKS
FirstGov
(server date/time)  
NASA Home Page
Site Manager:   Ryan S. Park
Webmaster  Alan B. Chamberlin